Вернуться в каталог

STARLINK-4019

АктивенСвязьVLEO
NORAD 52598·PAYLOAD·🇺🇸 United States

Запущен May 14, 2022 с Cape Canaveral Space Force Station

Loading…

Ближайшие Пролёты (ближайшие 24 часа)

TLE

СвежийSource: CelesTrak SupGP

Эпоха: Sep 14, 2026, 13:57 UTC

1 52598C 22052A   26257.58173611  .00051100  00000+0  14621-2 0  2573
2 52598  53.1564 143.9334 0001167  96.7353 296.2704 15.35370085    18

Отслеживайте STARLINK-4019 в реальном времени с AllMySat

Download on the App Store